This is the latest recevied weather packets stored in our database for station/object GCEMA. If no packets are shown the sender has not sent any weather packets the latest 1 day(s).
| Time | Temp. | Humidity | Pressure | Rain* | Wind** | Luminosity | Snow |
|---|---|---|---|---|---|---|---|
| 1778043149 | 11.67° C | - | 1007.2 hPa | 0 mm | 0 m/s | - | - |
| 1778042970 | 11.11° C | - | 1007.3 hPa | 0 mm | 0 m/s | - | - |
| 1778042788 | 11.11° C | - | 1007.2 hPa | 0 mm | 0 m/s | - | - |
| 1778042608 | 12.22° C | - | 1007.1 hPa | 0 mm | 0 m/s | - | - |
| 1778042247 | 10.56° C | - | 1007.6 hPa | 0 mm | 0 m/s | - | - |
| 1778041885 | 10.56° C | - | 1007.3 hPa | 0 mm | 0 m/s | - | - |
| 1778041346 | 12.22° C | - | 1006.7 hPa | 0 mm | 0 m/s | - | - |
| 1778041167 | 11.11° C | - | 1006.9 hPa | 0 mm | 0 m/s | - | - |
| 1778040986 | 12.78° C | - | 1006.8 hPa | 0 mm | 0 m/s | - | - |
| 1778040805 | 12.22° C | - | 1006.7 hPa | 0 mm | 0 m/s | - | - |
| 1778040628 | 12.22° C | - | 1006.8 hPa | 0 mm | 0 m/s | - | - |
| 1778040446 | 11.67° C | - | 1006.8 hPa | 0 mm | 0 m/s | - | - |
| 1778040268 | 11.67° C | - | 1006.9 hPa | 0 mm | 0 m/s | - | - |
| 1778039907 | 12.22° C | - | 1006.7 hPa | 0 mm | 0 m/s | - | - |
| 1778039547 | 12.22° C | - | 1007 hPa | 0 mm | 0 m/s | - | - |
| 1778039185 | 11.11° C | - | 1006.7 hPa | 0 mm | 0 m/s | - | - |
| 1778039006 | 12.78° C | - | 1006.3 hPa | 0 mm | 0 m/s | - | - |
| 1778038825 | 11.67° C | - | 1006.2 hPa | 0 mm | 0 m/s | - | - |
| 1778038645 | 12.78° C | - | 1006.2 hPa | 0 mm | 0 m/s | - | - |
| 1778038467 | 12.78° C | - | 1006.4 hPa | 0 mm | 0 m/s | - | - |
| 1778038283 | 11.67° C | - | 1005.9 hPa | 0 mm | 0 m/s | - | - |
| 1778038104 | 10.56° C | - | 1006 hPa | 0 mm | 0 m/s | - | - |
| 1778037924 | 12.78° C | - | 1006.5 hPa | 0 mm | 0 m/s | - | - |
| 1778037745 | 12.78° C | - | 1006.8 hPa | 0 mm | 0 m/s | - | - |
| 1778037384 | 11.67° C | - | 1007.1 hPa | 0 mm | 0 m/s | - | - |
* Rain latest hour (hover to see other rain measurements)
** Current wind speed in m/s (hover to see current wind gust speed)